TimeCDT,TemperatureF,Dew PointF,Humidity,Sea Level PressureIn,VisibilityMPH,Wind Direction,Wind SpeedMPH,Gust SpeedMPH,PrecipitationIn,Events,Conditions,WindDirDegrees,DateUTC
12:53 AM,72.0,57.9,61,30.06,10.0,ENE,6.9,-,N/A,,Clear,60,2011-10-09 05:53:00
1:53 AM,70.0,59.0,68,30.06,10.0,NE,5.8,-,N/A,,Clear,50,2011-10-09 06:53:00
2:53 AM,66.0,59.0,78,30.07,10.0,NNE,5.8,-,N/A,,Clear,30,2011-10-09 07:53:00
3:53 AM,64.0,57.9,80,30.07,10.0,Calm,Calm,-,N/A,,Clear,0,2011-10-09 08:53:00
4:53 AM,64.9,57.9,78,30.07,10.0,Calm,Calm,-,N/A,,Mostly Cloudy,0,2011-10-09 09:53:00
6:53 AM,63.0,57.0,81,30.08,10.0,NE,4.6,-,N/A,,Clear,50,2011-10-09 11:53:00
7:53 AM,64.0,57.9,80,30.08,10.0,NE,9.2,-,N/A,,Clear,50,2011-10-09 12:53:00
8:53 AM,69.1,57.9,68,30.09,10.0,East,9.2,-,N/A,,Clear,80,2011-10-09 13:53:00
9:53 AM,73.0,59.0,61,30.09,10.0,East,12.7,-,N/A,,Clear,80,2011-10-09 14:53:00
10:53 AM,75.9,60.1,58,30.07,10.0,ENE,13.8,18.4,N/A,,Clear,70,2011-10-09 15:53:00
11:53 AM,79.0,60.1,52,30.06,10.0,ENE,13.8,19.6,N/A,,Clear,70,2011-10-09 16:53:00
12:53 PM,81.0,59.0,47,30.04,10.0,ESE,8.1,20.7,N/A,,Mostly Cloudy,120,2011-10-09 17:53:00
1:53 PM,81.0,55.9,42,30.00,10.0,East,12.7,16.1,N/A,,Mostly Cloudy,80,2011-10-09 18:53:00
2:53 PM,82.0,55.0,39,29.98,10.0,East,11.5,23.0,N/A,,Mostly Cloudy,90,2011-10-09 19:53:00
3:53 PM,82.9,54.0,37,29.95,10.0,East,15.0,24.2,N/A,,Partly Cloudy,80,2011-10-09 20:53:00
4:53 PM,82.9,53.1,36,29.94,10.0,East,13.8,19.6,N/A,,Clear,100,2011-10-09 21:53:00
5:53 PM,82.0,51.1,34,29.95,10.0,East,12.7,18.4,N/A,,Partly Cloudy,90,2011-10-09 22:53:00
6:53 PM,79.0,51.1,38,29.96,10.0,East,9.2,-,N/A,,Partly Cloudy,80,2011-10-09 23:53:00
7:53 PM,75.0,53.1,46,29.96,10.0,ENE,5.8,-,N/A,,Clear,70,2011-10-10 00:53:00
8:53 PM,75.0,54.0,48,29.97,10.0,ENE,5.8,-,N/A,,Scattered Clouds,60,2011-10-10 01:53:00
9:53 PM,73.9,54.0,50,29.99,10.0,ENE,6.9,-,N/A,,Mostly Cloudy,60,2011-10-10 02:53:00
10:53 PM,73.9,55.0,52,30.00,10.0,ENE,5.8,-,N/A,,Overcast,70,2011-10-10 03:53:00
11:53 PM,73.0,55.0,53,30.00,10.0,ENE,5.8,-,N/A,,Overcast,60,2011-10-10 04:53:00